FW4395 Weather Reports


time (UTC)temp
C
wind
direction
speed
KPH
gust
KPH
rain 1hr
cm
rain 24hr
cm
rain mn
cm
humidity
%
barometer
mb
20260503051506 9 296 3.2 4.8 0.00 0.00 0.00 35 1013.1
20260503051005 9 305 3.2 4.8 0.00 0.00 0.00 35 1013.1
20260503050505 10 296 3.2 8.0 0.00 0.00 0.00 35 1013.0
20260503044505 10 287 4.8 4.8 0.00 0.00 0.00 34 1013.0
20260503044005 10 278 3.2 4.8 0.00 0.00 0.00 34 1013.0
20260503043506 10 295 6.4 8.0 0.00 0.00 0.00 34 1012.9
20260503042505 10 299 3.2 8.0 0.00 0.00 0.00 35 1012.9
20260503042005 11 280 4.8 9.7 0.00 0.00 0.00 33 1012.9
20260503041005 11 196 1.6 3.2 0.00 0.00 0.00 32 1012.8
20260503040505 11 310 0.0 1.6 0.00 0.00 0.00 31 1012.8
20260503040005 11 325 1.6 3.2 0.00 0.00 0.00 32 1012.7
20260503035505 11 15 1.6 3.2 0.00 0.00 0.00 32 1012.7
20260503035005 12 315 1.6 4.8 0.00 0.00 0.00 31 1012.7
20260503034505 12 299 3.2 4.8 0.00 0.00 0.00 30 1012.5
20260503034005 12 243 0.0 3.2 0.00 0.00 0.00 31 1012.5
20260503033505 13 215 1.6 3.2 0.00 0.00 0.00 29 1012.4
20260503033006 13 317 3.2 4.8 0.00 0.00 0.00 29 1012.4
20260503031504 13 229 1.6 3.2 0.00 0.00 0.00 29 1012.3
20260503031005 14 300 4.8 4.8 0.00 0.00 0.00 28 1012.3
20260503030505 15 322 4.8 8.0 0.00 0.00 0.00 27 1012.2
20260503030005 15 318 4.8 8.0 0.00 0.00 0.00 27 1012.2
20260503025504 15 304 6.4 9.7 0.00 0.00 0.00 26 1012.2
20260503025005 15 312 8.0 11.3 0.00 0.00 0.00 26 1012.1
20260503024505 16 324 4.8 8.0 0.00 0.00 0.00 25 1012.1
20260503024006 16 298 8.0 8.0 0.00 0.00 0.00 25 1012.0
20260503023505 16 299 8.0 8.0 0.00 0.00 0.00 24 1012.0
20260503023005 17 293 8.0 11.3 0.00 0.00 0.00 24 1012.1
20260503022505 17 280 9.7 14.5 0.00 0.00 0.00 23 1012.0
20260503021005 18 276 9.7 14.5 0.00 0.00 0.00 22 1012.0
20260503020505 18 289 9.7 14.5 0.00 0.00 0.00 23 1012.0
20260503020005 18 298 14.5 22.5 0.00 0.00 0.00 21 1012.1
20260503015504 18 226 3.2 4.8 0.00 0.00 0.00 26 1012.2
20260503015005 18 81 0.0 3.2 0.00 0.00 0.00 28 1012.2
20260503014005 18 331 4.8 11.3 0.00 0.00 0.00 27 1012.2
20260503013005 19 74 4.8 16.1 0.00 0.00 0.00 29 1012.3
20260503012505 19 125 3.2 8.0 0.00 0.00 0.00 29 1012.4
20260503012005 20 155 4.8 11.3 0.00 0.00 0.00 29 1012.5
20260503011506 20 151 8.0 12.9 0.00 0.00 0.00 29 1012.5
20260503011005 20 193 9.7 14.5 0.00 0.00 0.00 28 1012.6
20260503010505 20 219 11.3 14.5 0.00 0.00 0.00 28 1012.7
20260503010005 19 199 6.4 12.9 0.00 0.00 0.00 29 1012.7
20260503005505 18 143 3.2 8.0 0.00 0.00 0.00 28 1012.6
20260503005004 19 202 8.0 14.5 0.00 0.00 0.00 26 1012.8
20260503004505 18 206 16.1 20.9 0.00 0.00 0.00 29 1012.8
20260503004005 18 207 11.3 19.3 0.00 0.00 0.00 30 1012.9
20260503003005 18 198 9.7 14.5 0.00 0.00 0.00 27 1012.8
20260503002505 20 104 4.8 9.7 0.00 0.00 0.00 31 1012.8
20260503002005 20 127 4.8 14.5 0.00 0.00 0.00 29 1013.0
20260503001505 20 190 11.3 16.1 0.00 0.00 0.00 29 1013.0
20260503001004 20 221 9.7 12.9 0.00 0.00 0.00 26 1013.0
20260503000505 20 241 8.0 16.1 0.00 0.00 0.00 24 1013.1
20260502235505 20 235 17.7 24.1 0.00 0.00 0.00 25 1013.1
20260502235005 20 259 9.7 16.1 0.00 0.00 0.00 26 1013.1
20260502234005 20 192 12.9 19.3 0.00 0.00 0.00 27 1013.3
20260502233505 20 233 14.5 20.9 0.00 0.00 0.00 27 1013.3
20260502233005 19 280 9.7 20.9 0.00 0.00 0.00 27 1013.4
20260502232505 19 262 17.7 22.5 0.00 0.00 0.00 27 1013.5
20260502232005 19 274 16.1 22.5 0.00 0.00 0.00 28 1013.6
20260502231505 19 193 8.0 19.3 0.00 0.00 0.00 29 1013.7
20260502231006 20 268 6.4 20.9 0.00 0.00 0.00 31 1013.6
20260502230504 20 107 1.6 4.8 0.00 0.00 0.00 32 1013.9
20260502230005 19 238 1.6 8.0 0.00 0.00 0.00 30 1014.0
20260502225505 19 126 3.2 12.9 0.00 0.00 0.00 30 1014.2
20260502225005 20 221 8.0 14.5 0.00 0.00 0.00 29 1014.2
20260502224505 20 212 16.1 25.7 0.00 0.00 0.00 30 1014.2
20260502224005 19 181 3.2 11.3 0.00 0.00 0.00 30 1014.3
20260502223505 18 256 4.8 9.7 0.00 0.00 0.00 31 1014.4
20260502223005 18 235 3.2 9.7 0.00 0.00 0.00 30 1014.5
20260502222504 18 240 14.5 24.1 0.00 0.00 0.00 30 1014.7
20260502222005 18 251 11.3 16.1 0.00 0.00 0.00 31 1014.7
20260502221505 18 189 6.4 14.5 0.00 0.00 0.00 32 1014.7
20260502220505 18 260 8.0 20.9 0.00 0.00 0.00 31 1014.9
20260502220005 18 22 3.2 11.3 0.00 0.00 0.00 36 1014.9
20260502215505 18 154 8.0 14.5 0.00 0.00 0.00 35 1015.0
20260502215005 18 277 4.8 19.3 0.00 0.00 0.00 33 1015.2
20260502214505 18 200 16.1 24.1 0.00 0.00 0.00 33 1015.3
20260502214004 18 175 12.9 24.1 0.00 0.00 0.00 34 1015.3
20260502213505 18 223 16.1 24.1 0.00 0.00 0.00 34 1015.3
20260502213005 18 223 20.9 27.4 0.00 0.00 0.00 35 1015.4
20260502212506 17 212 8.0 14.5 0.00 0.00 0.00 36 1015.5
20260502211505 17 183 9.7 14.5 0.00 0.00 0.00 36 1015.7
20260502211005 17 126 3.2 8.0 0.00 0.00 0.00 37 1015.8
20260502210505 17 304 8.0 14.5 0.00 0.00 0.00 37 1015.9
20260502205005 17 148 8.0 16.1 0.00 0.00 0.00 38 1015.9
20260502204505 17 128 6.4 22.5 0.00 0.00 0.00 41 1016.1
20260502204005 17 136 6.4 19.3 0.00 0.00 0.00 35 1016.2
20260502203505 17 187 4.8 9.7 0.00 0.00 0.00 37 1016.2
20260502203005 17 144 4.8 11.3 0.00 0.00 0.00 39 1016.3
20260502201504 17 100 8.0 19.3 0.00 0.00 0.00 40 1016.6
20260502201005 17 129 6.4 16.1 0.00 0.00 0.00 40 1016.7
20260502200505 16 179 8.0 12.9 0.00 0.00 0.00 41 1016.8
20260502200005 16 105 3.2 11.3 0.00 0.00 0.00 40 1016.9
20260502195504 16 122 4.8 9.7 0.00 0.00 0.00 42 1016.9
20260502195005 15 157 3.2 11.3 0.00 0.00 0.00 41 1017.0
20260502194505 16 188 9.7 14.5 0.00 0.00 0.00 40 1017.1
20260502194005 15 205 4.8 16.1 0.00 0.00 0.00 40 1017.3
20260502193505 16 217 8.0 19.3 0.00 0.00 0.00 40 1017.3
20260502193005 16 119 4.8 12.9 0.00 0.00 0.00 41 1017.5
20260502192504 16 247 8.0 19.3 0.00 0.00 0.00 39 1017.5
20260502192005 16 190 4.8 12.9 0.00 0.00 0.00 41 1017.5
20260502191505 16 79 4.8 11.3 0.00 0.00 0.00 41 1017.6
20260502191005 16 151 4.8 11.3 0.00 0.00 0.00 41 1017.6
20260502190004 15 163 11.3 19.3 0.00 0.00 0.00 42 1017.8
20260502185505 15 104 3.2 9.7 0.00 0.00 0.00 45 1017.8
20260502184505 15 188 11.3 25.7 0.00 0.00 0.00 42 1017.9
20260502184005 15 211 11.3 25.7 0.00 0.00 0.00 42 1017.9
20260502183005 15 140 8.0 14.5 0.00 0.00 0.00 43 1018.0
20260502182005 15 152 8.0 22.5 0.00 0.00 0.00 45 1018.2
20260502181504 14 126 6.4 9.7 0.00 0.00 0.00 45 1018.2
20260502181005 14 144 6.4 14.5 0.00 0.00 0.00 44 1018.3
20260502180505 14 146 4.8 12.9 0.00 0.00 0.00 44 1018.4
20260502170505 12 197 6.4 11.3 0.00 0.00 0.00 50 1019.2
20260502164005 12 167 3.2 4.8 0.00 0.00 0.00 53 1019.2
20260502163505 12 128 6.4 9.7 0.00 0.00 0.00 52 1019.3
20260502163005 12 155 3.2 4.8 0.00 0.00 0.00 54 1019.4
20260502162505 12 77 4.8 8.0 0.00 0.00 0.00 53 1019.4
20260502162004 12 133 1.6 4.8 0.00 0.00 0.00 57 1019.4
20260502161504 11 135 1.6 4.8 0.00 0.00 0.00 55 1019.4
20260502161005 11 145 1.6 4.8 0.00 0.00 0.00 54 1019.4
20260502160504 11 154 3.2 4.8 0.00 0.00 0.00 56 1019.4
20260502152005 10 90 1.6 4.8 0.00 0.00 0.00 58 1019.7
20260502151505 10 118 0.0 3.2 0.00 0.00 0.00 58 1019.7
20260502151004 10 76 1.6 3.2 0.00 0.00 0.00 62 1019.8
20260502150505 10 89 1.6 3.2 0.00 0.00 0.00 61 1019.8
20260502130505 6 9 0.0 0.0 0.00 0.00 0.00 74 1019.2
20260502123505 6 9 0.0 1.6 0.00 0.00 0.00 72 1019.2
20260502123004 6 9 0.0 1.6 0.00 0.00 0.00 72 1019.2
20260502122504 6 9 0.0 1.6 0.00 0.00 0.00 72 1019.2
20260502122005 6 346 0.0 0.0 0.00 0.00 0.00 72 1019.2
20260502121505 6 346 0.0 0.0 0.00 0.00 0.00 71 1019.2
20260502121005 6 346 0.0 0.0 0.00 0.00 0.00 71 1019.2
20260502120505 6 346 0.0 0.0 0.00 0.00 0.00 71 1019.2
20260502115504 6 346 0.0 0.0 0.00 0.00 0.00 71 1019.3
20260502115005 6 346 0.0 0.0 0.00 0.00 0.00 71 1019.3
20260502114005 6 347 1.6 1.6 0.00 0.00 0.00 70 1019.3
20260502113005 6 352 1.6 3.2 0.00 0.00 0.00 69 1019.3
20260502112504 6 341 3.2 3.2 0.00 0.00 0.00 69 1019.4
20260502111504 7 335 1.6 1.6 0.00 0.00 0.00 68 1019.4
20260502110505 7 346 3.2 4.8 0.00 0.00 0.00 68 1019.4
20260502110005 7 347 3.2 4.8 0.00 0.00 0.00 68 1019.3
20260502105005 7 335 3.2 3.2 0.00 0.00 0.00 68 1019.4
20260502104505 7 331 3.2 3.2 0.00 0.00 0.00 68 1019.4
20260502104005 7 343 3.2 3.2 0.00 0.00 0.00 67 1019.4
20260502103004 7 311 1.6 3.2 0.00 0.00 0.00 67 1019.4
20260502102505 7 309 1.6 1.6 0.00 0.00 0.00 67 1019.4
20260502102005 7 321 1.6 3.2 0.00 0.00 0.00 68 1019.4
20260502101504 7 321 3.2 4.8 0.00 0.00 0.00 68 1019.4
20260502101004 7 321 3.2 4.8 0.00 0.00 0.00 68 1019.4
20260502100505 7 315 1.6 3.2 0.00 0.00 0.00 69 1019.4
20260502091505 8 341 4.8 9.7 0.00 0.00 0.00 65 1019.4
20260502091005 8 335 6.4 9.7 0.00 0.00 0.00 65 1019.3
20260502071004 9 282 8.0 11.3 0.00 0.00 0.00 63 1018.9
20260502070504 8 274 4.8 9.7 0.00 0.00 0.00 63 1018.9
20260502065504 8 287 1.6 4.8 0.00 0.00 0.00 64 1018.9
20260502065004 8 289 4.8 8.0 0.00 0.00 0.00 64 1018.9
20260502064505 8 306 4.8 8.0 0.00 0.00 0.00 64 1018.9
20260502064005 8 278 8.0 11.3 0.00 0.00 0.00 64 1018.9
20260502063504 8 230 4.8 11.3 0.00 0.00 0.00 64 1018.9
20260502063005 8 232 6.4 11.3 0.00 0.00 0.00 63 1018.8
20260502062505 8 244 3.2 8.0 0.00 0.00 0.00 63 1018.8
20260502062004 9 266 3.2 8.0 0.00 0.00 0.00 62 1018.8
20260502061504 9 290 1.6 3.2 0.00 0.00 0.00 62 1018.7
20260502060504 9 293 3.2 4.8 0.00 0.00 0.00 61 1018.6
20260502060004 9 293 4.8 9.7 0.00 0.00 0.00 61 1018.7
20260502055004 9 279 4.8 9.7 0.00 0.00 0.00 61 1018.6
20260502054504 9 292 3.2 4.8 0.00 0.00 0.00 62 1018.6
20260502054005 8 304 3.2 4.8 0.00 0.00 0.00 64 1018.5
20260502053504 8 278 1.6 3.2 0.00 0.00 0.00 65 1018.5
20260502053004 8 248 1.6 3.2 0.00 0.00 0.00 65 1018.4
20260502052504 8 318 0.0 0.0 0.00 0.00 0.00 64 1018.3